Yellowstone Natl Park, WY

8:31 PM MST on December 10, 2016 (GMT -0700)
Yellowstone

Weather History for KP60 - July, 2012

Change the Weather History Date:

Sunday, July 29, 2012

  Actual Average Record
Temperature  
Mean Temperature 60 °F 57 °F  
Max Temperature 81 °F 74 °F 82 °F (2006)
Min Temperature 39 °F 41 °F 28 °F (2015)
Degree Days  
Heating Degree Days 6 8  
Month to date heating degree days 267  
Since 1 June heating degree days 760  
Since 1 July heating degree days 267  
Cooling Degree Days 0 0  
Month to date cooling degree days 0  
Year to date cooling degree days 0  
Since 1 June cooling degree days 0  
Growing Degree Days 10 (Base 50)    
Moisture  
Dew Point 37 °F    
Average Humidity 50    
Maximum Humidity 86    
Minimum Humidity 12    
Precipitation  
Precipitation 0.00 in 0.05 in 0.06 in (2014)
Month to date precipitation 1.38  
Year to date precipitation 12.46  
Sea Level Pressure  
Sea Level Pressure 30.14 in    
Wind  
Wind Speed 2 mph (NNW)    
Max Wind Speed 10 mph    
Max Gust Speed 17 mph    
T = Trace of Precipitation, MM = Missing Value Source: NWS Daily Summary

Daily Weather History Graph

Daily Weather History Graph

Search for Another Location

Airport or City:

Trip Planner

Search our weather history database for the weather conditions in past years. The results will help you decide how hot, cold, wet, or windy it might be!

Date:

Astronomy

Jul. 29, 2012 Rise Set
Actual Time 6:05 AM MDT 8:49 PM MDT
Civil Twilight 5:31 AM MDT 9:23 PM MDT
Nautical Twilight 4:49 AM MDT 10:05 PM MDT
Astronomical Twilight 3:59 AM MDT 10:54 PM MDT
Moon 6:02 PM MDT (7/29) 2:20 AM MDT (7/29)
Length of Visible Light 15h 51m
Length of Day
14h 44m
Waxing Gibbous, 85% of the Moon is Illuminated
Jul 29
Waxing Gibbous
Aug 1
Full
Aug 9
Last Quarter
Aug 17
New
Aug 24
First Quarter

Hourly Weather History & Observations

Time (MDT) Temp. Windchill Dew Point Humidity Pressure Visibility Wind Dir Wind Speed Gust Speed Precip Events Conditions
12:56 AM 46.0 °F - 39.0 °F 76% 30.15 in - Calm Calm - N/A   Unknown
1:56 AM 45.0 °F - 37.9 °F 76% 30.12 in - Calm Calm - N/A   Unknown
2:56 AM 43.0 °F 41.3 °F 37.0 °F 80% 30.11 in - NW 3.5 mph - N/A   Unknown
3:56 AM 42.1 °F - 37.0 °F 82% 30.12 in - Calm Calm - N/A   Unknown
4:56 AM 41.0 °F 39.0 °F 36.0 °F 82% 30.14 in - NW 3.5 mph - N/A   Unknown
5:56 AM 39.9 °F - 36.0 °F 86% 30.19 in - Calm Calm - N/A   Unknown
6:56 AM 41.0 °F - 36.0 °F 82% 30.21 in - Calm Calm - N/A   Unknown
7:56 AM 48.9 °F - 42.1 °F 77% 30.18 in - Calm Calm - N/A   Unknown
8:56 AM 59.0 °F - 46.9 °F 64% 30.17 in - Calm Calm - N/A   Unknown
9:56 AM 64.0 °F - 46.9 °F 54% 30.16 in - Calm Calm - N/A   Unknown
10:56 AM 68.0 °F - 46.0 °F 45% 30.15 in - ESE 4.6 mph - N/A   Unknown
11:56 AM 75.9 °F - 44.1 °F 32% 30.11 in - Variable 3.5 mph - N/A   Unknown
12:56 PM 78.1 °F - 39.9 °F 25% 30.10 in - Variable 5.8 mph - N/A   Unknown
1:56 PM 78.1 °F - 39.0 °F 25% 30.10 in - Variable 4.6 mph - N/A   Unknown
2:56 PM 80.1 °F - 34.0 °F 19% 30.09 in - Variable 5.8 mph 16.1 mph N/A   Unknown
3:56 PM 75.9 °F - 28.9 °F 18% 30.11 in - Variable 6.9 mph 17.3 mph N/A   Unknown
4:56 PM 79.0 °F - 25.0 °F 14% 30.09 in - West 10.4 mph 17.3 mph N/A   Unknown
5:56 PM 78.1 °F - 21.0 °F 12% 30.09 in - Variable 4.6 mph - N/A   Unknown
6:56 PM 72.0 °F - 36.0 °F 27% 30.14 in - NNE 8.1 mph - N/A   Unknown
7:56 PM 66.9 °F - 37.0 °F 33% 30.16 in - Variable 4.6 mph - N/A   Unknown
8:56 PM 63.0 °F - 36.0 °F 37% 30.15 in - Variable 5.8 mph - N/A   Unknown
9:56 PM 60.1 °F - 37.0 °F 42% 30.15 in - East 3.5 mph - N/A   Unknown
10:56 PM 52.0 °F - 37.0 °F 57% 30.16 in - WNW 3.5 mph - N/A   Unknown
11:56 PM 48.9 °F - 36.0 °F 61% 30.12 in - Calm Calm - N/A   Unknown